Regional Weather Roundup
Issued by NWS

Home | Current Version | Previous Version | Graphics & Text | Print | Product List | Glossary On
Versions: 1 2 3 4 5 6 7 8 9 10 11 12 13 14 15 16 17 18 19 20 21 22 23 24 25 26 27 28 29 30 31 32 33 34 35 36 37 38 39 40 41 42 43 44 45 46 47 48 49 50
000
ASUS45 KBOU 231407
RWRCO

WEATHER ROUNDUP FOR COLORADO
NATIONAL WEATHER SERVICE DENVER/BOULDER CO
800 AM MDT WED AUG 23 2017

NOTE: "FAIR" INDICATES FEW OR NO CLOUDS BELOW 12000 FEET WITH NO
SIGNIFICANT WEATHER AND/OR OBSTRUCTIONS TO VISIBILITY.

COZ001>005-013-030-031-231500-
...NORTHWEST COLORADO...

CITY           SKY/WX    TMP DP  RH WIND       PRES   REMARKS
CRAIG          LGT RAIN  54  47  77 CALM      30.32R
HAYDEN         CLOUDY    58  41  53 E6        30.35S
MEEKER         PTSUNNY   58  47  66 CALM      30.34R
RABBIT EARS PA CLOUDY    50  36  57 W10       30.59S
STEAMBOAT SPGS PTSUNNY   52  44  72 CALM      30.36S
WALDEN         PTSUNNY   50  41  71 SE3       30.44S
$$

COZ006>008-011-231500-
...WEST CENTRAL VALLEYS...

CITY           SKY/WX    TMP DP  RH WIND       PRES   REMARKS
GRAND JUNCTION FAIR      69  49  48 SE9       30.23S
MONTROSE       FAIR      60  47  61 S5        30.33R
EAGLE          PTSUNNY   57  42  57 CALM      30.39S
RIFLE          PTSUNNY   62  46  55 CALM      30.30S
DELTA          FAIR      63  45  51 NE5       30.29S
NUCLA          FAIR      59  45  58 CALM      30.35S
$$

COZ017>023-064>068-231500-
...SOUTHWEST COLORADO...

CITY           SKY/WX    TMP DP  RH WIND       PRES   REMARKS
DURANGO        FAIR      57  43  59 CALM      30.37S
CORTEZ         FAIR      58  50  75 MISG      30.31S
PAGOSA SPRINGS FAIR      54  45  72 CALM      30.46S
TELLURIDE      FAIR      54  44  69 SE3       30.53F
WOLF CREEK PAS FAIR      43  41  93 S6        30.74S
$$

COZ009-010-012-014-032>034-037-058>063-231500-
...CENTRAL COLORADO...

CITY           SKY/WX    TMP DP  RH WIND       PRES   REMARKS
ASPEN          FAIR      56  44  64 S3        30.42S
BUENA VISTA    FAIR      48  43  80 CALM      30.44S
COPPER MTN     CLOUDY    52  34  50 NW3       30.69S
BERTHOUD PASS  CLOUDY    41  36  81 NW6       30.72S
COTTONWOOD PAS FAIR      55  36  47 NW3       30.54S
GUNNISON       FAIR      46  40  79 CALM      30.49S
KREMMLING      FAIR      59  43  55 CALM      30.43S
LEADVILLE      PTSUNNY   43  38  82 NE6       30.54F
SALIDA         FAIR      55  44  64 N8        30.48F
SUNLIGHT       PTSUNNY   48  36  61 SW5       30.64S
WILKERSON PASS CLOUDY    50  32  50 N7        30.65S
$$

COZ069>075-231500-
...SAN LUIS VALLEY/SANGRE DE CRISTO MOUNTAINS...

CITY           SKY/WX    TMP DP  RH WIND       PRES   REMARKS
ALAMOSA        FAIR      47  46  97 N3        30.44S
DEL NORTE      FAIR      51  44  76 W9        30.47S
LA VETA PASS   NOT AVBL
SAGUACHE         N/A    N/A N/A N/A MISG        N/A
$$

COZ035-036-038>040-231500-
...NORTHERN COLORADO FRONT RANGE...

CITY           SKY/WX    TMP DP  RH WIND       PRES   REMARKS
DENVER INTL AP PTSUNNY   67  47  48 W8        30.20R
DMNS CITY PARK   N/A     67  50  54 NE8       30.20S
AURORA         PTSUNNY   65  49  55 S6        30.22R
FRONT RANGE AP FAIR      66  52  59 W6        30.21R
ERIE MUNI ARPT FAIR      63  57  81 CALM      30.25R
BOULDER MUN AP FAIR      64  48  55 N3        30.20S
CENTENNIAL     PTSUNNY   64  50  60 E3        30.23R
BROOMFIELD     PTSUNNY   66  55  68 N6        30.22S
FORT COLLINS   FAIR      62  58  86 CALM      30.19S
LONGMONT       FAIR      64  54  69 CALM      30.21S HAZE
$$

COZ041-046-047-076>085-087-088-231500-
...PIKES PEAK/PALMER DIVIDE AND SOUTHERN FOOTHILLS...

CITY           SKY/WX    TMP DP  RH WIND       PRES   REMARKS
COLO. SPRINGS  PTSUNNY   60  54  80 CALM      30.30R
A. F. ACADEMY  PTSUNNY   57  51  80 CALM      30.30R
SCHRIEVER AFB  PTSUNNY   58  53  85 CALM      30.30R
CHEYENNE MTN   FAIR      59  50  71 NE3       30.27R
ELLICOTT       FAIR     N/A N/A N/A SE6       30.27S
FALCON         FAIR      58  53  85 CALM      30.33S
FORT CARSON    FAIR      59  53  78 N5        30.27R
LIMON          CLOUDY    57  57 100 S12       30.24F FOG
MONUMENT HILL  FAIR      57  50  77 S7        30.32S
CANON CITY     SUNNY     68  50  52 W8        30.24S
WALSENBURG     FAIR      70  48  46 SW10      30.29S
TRINIDAD       FAIR      62  50  64 W8        30.28S
$$

COZ042>045-048>051-090-091-231500-
...NORTHEAST COLORADO...

CITY           SKY/WX    TMP DP  RH WIND       PRES   REMARKS
GREELEY ARPT   FAIR      59  55  87 W6        30.18S
AKRON          FAIR      65  57  75 S18       30.17S
BURLINGTON     CLOUDY    62  57  83 S17       30.21S
WRAY           FAIR      63  50  63 S14       30.18S
YUMA           FAIR      61  55  82 S14G22    30.17S
STERLING       FAIR      63  57  82 S6        30.14S
HOLYOKE        FAIR      63  54  72 S12G18    30.18S
FORT MORGAN    FAIR      65  55  70 SE5       30.16S
$$

COZ086-089-092>099-231500-
...SOUTHEAST COLORADO...

CITY           SKY/WX    TMP DP  RH WIND       PRES   REMARKS
PUEBLO         FAIR      61  53  75 CALM      30.22S
LA JUNTA       FAIR      65  58  78 MISG      30.20S
LAMAR          CLOUDY    67  62  84 S14       30.20R
SPRINGFIELD      N/A     62  32  32 S13       30.25S
$$



USA.gov is the U.S. government's official web portal to all federal, state and local government web resources and services.